Time,TemperatureF,DewpointF,PressureIn,WindDirection,WindDirectionDegrees,WindSpeedMPH,WindSpeedGustMPH,Humidity,HourlyPrecipIn,Conditions,Clouds,dailyrainin,SoftwareType,DateUTC
2013-06-13 00:02:00,78.5,72.5,29.89,South,190,3.0,3.0,82,0.00,,,0.00,Wunderground v.1.15,2013-06-13 04:02:00,
2013-06-13 00:04:00,78.4,72.4,29.89,South,188,2.0,3.0,82,0.00,,,0.00,Wunderground v.1.15,2013-06-13 04:04:00,
2013-06-13 00:06:00,78.5,72.5,29.89,South,188,2.0,3.0,82,0.00,,,0.00,Wunderground v.1.15,2013-06-13 04:06:00,
2013-06-13 00:12:00,78.5,72.5,29.89,SSW,195,2.0,4.0,82,0.00,,,0.00,Wunderground v.1.15,2013-06-13 04:12:00,
2013-06-13 00:18:00,78.4,72.4,29.89,South,177,2.0,4.0,82,0.00,,,0.00,Wunderground v.1.15,2013-06-13 04:18:00,
2013-06-13 00:24:00,78.2,72.6,29.89,South,183,1.0,1.0,83,0.00,,,0.00,Wunderground v.1.15,2013-06-13 04:24:00,
2013-06-13 00:30:00,78.0,72.4,29.89,South,177,1.0,1.0,83,0.00,,,0.00,Wunderground v.1.15,2013-06-13 04:30:00,
2013-06-13 00:36:00,77.8,72.6,29.89,South,186,1.0,1.0,84,0.00,,,0.00,Wunderground v.1.15,2013-06-13 04:36:00,
2013-06-13 00:42:00,77.8,72.6,29.89,SSW,201,1.0,2.0,84,0.00,,,0.00,Wunderground v.1.15,2013-06-13 04:42:00,
2013-06-13 00:48:00,78.0,72.8,29.89,SSW,194,2.0,4.0,84,0.00,,,0.00,Wunderground v.1.15,2013-06-13 04:48:00,
2013-06-13 00:54:00,78.1,72.5,29.89,South,191,4.0,4.0,83,0.00,,,0.00,Wunderground v.1.15,2013-06-13 04:54:00,
2013-06-13 01:00:00,78.3,72.7,29.89,South,187,3.0,5.0,83,0.00,,,0.00,Wunderground v.1.15,2013-06-13 05:00:00,
2013-06-13 01:06:00,78.3,72.7,29.89,SSW,204,3.0,6.0,83,0.00,,,0.00,Wunderground v.1.15,2013-06-13 05:06:00,
2013-06-13 01:12:00,78.4,72.8,29.90,South,190,4.0,7.0,83,0.00,,,0.00,Wunderground v.1.15,2013-06-13 05:12:00,
2013-06-13 01:18:00,78.6,73.0,29.89,South,181,6.0,7.0,83,0.00,,,0.00,Wunderground v.1.15,2013-06-13 05:18:00,
2013-06-13 01:24:00,78.5,72.9,29.89,SSW,203,5.0,9.0,83,0.00,,,0.00,Wunderground v.1.15,2013-06-13 05:24:00,
2013-06-13 01:30:00,78.5,72.9,29.90,SW,214,6.0,6.0,83,0.00,,,0.00,Wunderground v.1.15,2013-06-13 05:30:00,
2013-06-13 01:36:00,78.6,73.0,29.90,SSW,194,6.0,7.0,83,0.00,,,0.00,Wunderground v.1.15,2013-06-13 05:36:00,
2013-06-13 01:42:00,78.5,72.9,29.90,South,188,6.0,6.0,83,0.00,,,0.00,Wunderground v.1.15,2013-06-13 05:42:00,
2013-06-13 01:48:00,78.5,72.9,29.90,SSW,200,6.0,6.0,83,0.00,,,0.00,Wunderground v.1.15,2013-06-13 05:48:00,
2013-06-13 01:54:00,78.3,72.7,29.90,South,191,6.0,6.0,83,0.00,,,0.00,Wunderground v.1.15,2013-06-13 05:54:00,
2013-06-13 02:00:00,78.1,72.9,29.90,South,187,5.0,5.0,84,0.00,,,0.00,Wunderground v.1.15,2013-06-13 06:00:00,
2013-06-13 02:06:00,77.9,72.7,29.91,South,181,4.0,6.0,84,0.00,,,0.00,Wunderground v.1.15,2013-06-13 06:06:00,
2013-06-13 02:12:00,77.9,72.7,29.90,South,183,4.0,6.0,84,0.00,,,0.00,Wunderground v.1.15,2013-06-13 06:12:00,
2013-06-13 02:18:00,77.9,72.7,29.90,SSW,197,5.0,10.0,84,0.00,,,0.00,Wunderground v.1.15,2013-06-13 06:18:00,
2013-06-13 02:24:00,77.7,72.5,29.90,SSW,193,5.0,8.0,84,0.00,,,0.00,Wunderground v.1.15,2013-06-13 06:24:00,
2013-06-13 02:30:00,77.6,72.7,29.90,SSW,195,6.0,6.0,85,0.00,,,0.00,Wunderground v.1.15,2013-06-13 06:30:00,
2013-06-13 02:36:00,77.5,72.6,29.90,SSW,194,6.0,6.0,85,0.00,,,0.00,Wunderground v.1.15,2013-06-13 06:36:00,
2013-06-13 02:42:00,77.5,72.6,29.90,SSW,195,5.0,6.0,85,0.00,,,0.00,Wunderground v.1.15,2013-06-13 06:42:00,
2013-06-13 02:48:00,77.4,72.5,29.90,SSW,205,5.0,6.0,85,0.00,,,0.00,Wunderground v.1.15,2013-06-13 06:48:00,
2013-06-13 02:54:00,77.3,72.8,29.90,SSW,210,5.0,6.0,86,0.00,,,0.00,Wunderground v.1.15,2013-06-13 06:54:00,
2013-06-13 03:00:00,77.2,72.7,29.90,South,187,5.0,7.0,86,0.00,,,0.00,Wunderground v.1.15,2013-06-13 07:00:00,
2013-06-13 03:06:00,77.2,72.3,29.90,SSW,203,5.0,7.0,85,0.00,,,0.00,Wunderground v.1.15,2013-06-13 07:06:00,
2013-06-13 03:12:00,77.3,72.4,29.90,SSW,200,5.0,6.0,85,0.00,,,0.00,Wunderground v.1.15,2013-06-13 07:12:00,
2013-06-13 03:18:00,77.2,72.3,29.90,SSW,198,5.0,6.0,85,0.00,,,0.00,Wunderground v.1.15,2013-06-13 07:18:00,
2013-06-13 03:24:00,77.1,72.2,29.89,SE,142,5.0,6.0,85,0.00,,,0.00,Wunderground v.1.15,2013-06-13 07:24:00,
2013-06-13 03:30:00,76.9,72.4,29.89,South,177,4.0,7.0,86,0.00,,,0.00,Wunderground v.1.15,2013-06-13 07:30:00,
2013-06-13 03:36:00,76.9,72.4,29.89,South,179,5.0,7.0,86,0.00,,,0.00,Wunderground v.1.15,2013-06-13 07:36:00,
2013-06-13 03:42:00,76.7,72.2,29.88,South,190,5.0,6.0,86,0.00,,,0.00,Wunderground v.1.15,2013-06-13 07:42:00,
2013-06-13 03:48:00,76.6,72.1,29.88,South,183,5.0,8.0,86,0.00,,,0.00,Wunderground v.1.15,2013-06-13 07:48:00,
2013-06-13 03:54:00,76.8,72.3,29.89,South,180,7.0,8.0,86,0.00,,,0.00,Wunderground v.1.15,2013-06-13 07:54:00,
2013-06-13 04:00:00,76.7,72.2,29.88,South,184,7.0,7.0,86,0.00,,,0.00,Wunderground v.1.15,2013-06-13 08:00:00,
2013-06-13 04:06:00,76.6,72.1,29.88,South,191,7.0,11.0,86,0.00,,,0.00,Wunderground v.1.15,2013-06-13 08:06:00,
2013-06-13 04:12:00,76.4,71.9,29.88,South,176,6.0,6.0,86,0.00,,,0.00,Wunderground v.1.15,2013-06-13 08:12:00,
2013-06-13 04:18:00,76.2,71.7,29.88,South,186,5.0,8.0,86,0.00,,,0.00,Wunderground v.1.15,2013-06-13 08:18:00,
2013-06-13 04:24:00,76.1,71.9,29.88,SSW,205,5.0,6.0,87,0.00,,,0.00,Wunderground v.1.15,2013-06-13 08:24:00,
2013-06-13 04:30:00,75.9,71.8,29.88,South,187,5.0,5.0,87,0.00,,,0.00,Wunderground v.1.15,2013-06-13 08:30:00,
2013-06-13 04:36:00,75.8,71.7,29.88,SSW,194,5.0,6.0,87,0.00,,,0.00,Wunderground v.1.15,2013-06-13 08:36:00,
2013-06-13 04:42:00,75.7,71.6,29.88,South,191,5.0,6.0,87,0.00,,,0.00,Wunderground v.1.15,2013-06-13 08:42:00,
2013-06-13 04:48:00,75.5,71.7,29.88,South,188,5.0,6.0,88,0.00,,,0.00,Wunderground v.1.15,2013-06-13 08:48:00,
2013-06-13 04:54:00,75.4,71.6,29.87,SSW,205,5.0,6.0,88,0.00,,,0.00,Wunderground v.1.15,2013-06-13 08:54:00,
2013-06-13 05:00:00,75.3,71.5,29.88,South,170,5.0,6.0,88,0.00,,,0.00,Wunderground v.1.15,2013-06-13 09:00:00,
2013-06-13 05:06:00,75.3,71.5,29.87,South,179,5.0,8.0,88,0.00,,,0.00,Wunderground v.1.15,2013-06-13 09:06:00,
2013-06-13 05:12:00,75.3,71.2,29.87,SSW,194,5.0,7.0,87,0.00,,,0.00,Wunderground v.1.15,2013-06-13 09:12:00,
2013-06-13 05:18:00,75.3,71.2,29.87,SSW,194,5.0,8.0,87,0.00,,,0.00,Wunderground v.1.15,2013-06-13 09:18:00,
2013-06-13 05:24:00,75.5,71.0,29.87,South,176,6.0,7.0,86,0.00,,,0.00,Wunderground v.1.15,2013-06-13 09:24:00,
2013-06-13 05:30:00,75.5,71.0,29.86,SSE,152,6.0,6.0,86,0.00,,,0.00,Wunderground v.1.15,2013-06-13 09:30:00,
2013-06-13 05:36:00,75.5,71.0,29.86,SSE,167,5.0,6.0,86,0.00,,,0.00,Wunderground v.1.15,2013-06-13 09:36:00,
2013-06-13 05:42:00,75.5,70.7,29.86,SE,139,5.0,6.0,85,0.00,,,0.00,Wunderground v.1.15,2013-06-13 09:42:00,
2013-06-13 05:48:00,75.5,70.7,29.86,South,172,6.0,9.0,85,0.00,,,0.00,Wunderground v.1.15,2013-06-13 09:48:00,
2013-06-13 05:54:00,75.5,70.7,29.86,South,176,6.0,8.0,85,0.00,,,0.00,Wunderground v.1.15,2013-06-13 09:54:00,
2013-06-13 06:00:00,75.6,70.8,29.86,South,187,7.0,7.0,85,0.00,,,0.00,Wunderground v.1.15,2013-06-13 10:00:00,
2013-06-13 06:06:00,75.7,70.5,29.86,South,184,7.0,8.0,84,0.00,,,0.00,Wunderground v.1.15,2013-06-13 10:06:00,
2013-06-13 06:12:00,75.6,70.4,29.86,South,177,6.0,7.0,84,0.00,,,0.00,Wunderground v.1.15,2013-06-13 10:12:00,
2013-06-13 06:18:00,75.5,70.7,29.86,SSE,160,5.0,7.0,85,0.00,,,0.00,Wunderground v.1.15,2013-06-13 10:18:00,
2013-06-13 06:24:00,75.5,70.7,29.86,South,181,5.0,6.0,85,0.00,,,0.00,Wunderground v.1.15,2013-06-13 10:24:00,
2013-06-13 06:30:00,75.5,70.3,29.85,South,178,5.0,7.0,84,0.00,,,0.00,Wunderground v.1.15,2013-06-13 10:30:00,
2013-06-13 06:36:00,75.6,70.4,29.85,South,186,6.0,7.0,84,0.00,,,0.00,Wunderground v.1.15,2013-06-13 10:36:00,
2013-06-13 06:42:00,75.6,70.4,29.85,SSE,167,6.0,6.0,84,0.00,,,0.00,Wunderground v.1.15,2013-06-13 10:42:00,
2013-06-13 06:48:00,75.7,70.5,29.85,SSW,198,6.0,9.0,84,0.00,,,0.00,Wunderground v.1.15,2013-06-13 10:48:00,
2013-06-13 06:54:00,75.7,70.5,29.85,SSW,208,6.0,8.0,84,0.00,,,0.00,Wunderground v.1.15,2013-06-13 10:54:00,
2013-06-13 07:00:00,75.7,70.5,29.85,SSW,194,5.0,5.0,84,0.00,,,0.00,Wunderground v.1.15,2013-06-13 11:00:00,
2013-06-13 07:06:00,75.8,70.6,29.85,SSW,198,5.0,8.0,84,0.00,,,0.00,Wunderground v.1.15,2013-06-13 11:06:00,
2013-06-13 07:12:00,75.9,70.7,29.84,South,187,5.0,9.0,84,0.00,,,0.00,Wunderground v.1.15,2013-06-13 11:12:00,
2013-06-13 07:18:00,76.3,70.8,29.85,South,190,6.0,9.0,83,0.00,,,0.00,Wunderground v.1.15,2013-06-13 11:18:00,
2013-06-13 07:24:00,76.6,70.7,29.85,South,191,6.0,15.0,82,0.00,,,0.00,Wunderground v.1.15,2013-06-13 11:24:00,
2013-06-13 07:30:00,76.9,70.6,29.84,South,176,8.0,13.0,81,0.00,,,0.00,Wunderground v.1.15,2013-06-13 11:30:00,
2013-06-13 07:36:00,77.1,70.8,29.84,South,186,9.0,13.0,81,0.00,,,0.00,Wunderground v.1.15,2013-06-13 11:36:00,
2013-06-13 07:42:00,77.4,71.1,29.84,SSE,166,8.0,13.0,81,0.00,,,0.00,Wunderground v.1.15,2013-06-13 11:42:00,
2013-06-13 07:48:00,77.5,71.2,29.84,South,187,9.0,13.0,81,0.00,,,0.00,Wunderground v.1.15,2013-06-13 11:48:00,
2013-06-13 07:54:00,77.7,71.0,29.83,SSE,167,10.0,15.0,80,0.00,,,0.00,Wunderground v.1.15,2013-06-13 11:54:00,
2013-06-13 08:00:00,77.9,71.2,29.83,SSW,194,11.0,11.0,80,0.00,,,0.00,Wunderground v.1.15,2013-06-13 12:00:00,
2013-06-13 08:06:00,78.0,71.3,29.83,SSW,194,9.0,11.0,80,0.00,,,0.00,Wunderground v.1.15,2013-06-13 12:06:00,
2013-06-13 08:12:00,78.2,71.5,29.83,SE,134,10.0,10.0,80,0.00,,,0.00,Wunderground v.1.15,2013-06-13 12:12:00,
2013-06-13 08:18:00,78.3,71.2,29.83,South,187,9.0,13.0,79,0.00,,,0.00,Wunderground v.1.15,2013-06-13 12:18:00,
2013-06-13 08:24:00,78.5,71.4,29.83,SSE,159,10.0,14.0,79,0.00,,,0.00,Wunderground v.1.15,2013-06-13 12:24:00,
2013-06-13 08:30:00,78.6,71.5,29.83,SSW,193,10.0,15.0,79,0.00,,,0.00,Wunderground v.1.15,2013-06-13 12:30:00,
2013-06-13 08:36:00,78.7,71.6,29.83,South,186,11.0,16.0,79,0.00,,,0.00,Wunderground v.1.15,2013-06-13 12:36:00,
2013-06-13 08:42:00,78.9,71.5,29.83,SSE,162,10.0,11.0,78,0.00,,,0.00,Wunderground v.1.15,2013-06-13 12:42:00,
2013-06-13 08:48:00,78.9,71.8,29.82,South,171,11.0,15.0,79,0.00,,,0.00,Wunderground v.1.15,2013-06-13 12:48:00,
2013-06-13 08:54:00,79.0,71.9,29.82,SSW,194,12.0,13.0,79,0.00,,,0.00,Wunderground v.1.15,2013-06-13 12:54:00,
2013-06-13 09:00:00,79.2,71.7,29.82,SSW,195,11.0,11.0,78,0.00,,,0.00,Wunderground v.1.15,2013-06-13 13:00:00,
2013-06-13 09:06:00,79.4,71.9,29.82,SSW,201,10.0,15.0,78,0.00,,,0.00,Wunderground v.1.15,2013-06-13 13:06:00,
2013-06-13 09:12:00,79.6,72.1,29.82,SSE,166,9.0,9.0,78,0.00,,,0.00,Wunderground v.1.15,2013-06-13 13:12:00,
2013-06-13 09:18:00,79.6,72.1,29.81,SSW,193,10.0,14.0,78,0.00,,,0.00,Wunderground v.1.15,2013-06-13 13:18:00,
2013-06-13 09:24:00,79.6,71.8,29.82,South,179,11.0,12.0,77,0.00,,,0.00,Wunderground v.1.15,2013-06-13 13:24:00,
2013-06-13 09:30:00,79.8,72.3,29.82,SSW,193,10.0,10.0,78,0.00,,,0.00,Wunderground v.1.15,2013-06-13 13:30:00,
2013-06-13 09:36:00,79.8,71.9,29.81,South,170,10.0,11.0,77,0.00,,,0.00,Wunderground v.1.15,2013-06-13 13:36:00,
2013-06-13 09:42:00,79.7,71.8,29.81,South,177,10.0,15.0,77,0.00,,,0.00,Wunderground v.1.15,2013-06-13 13:42:00,
2013-06-13 09:48:00,80.0,72.5,29.80,South,188,11.0,15.0,78,0.00,,,0.00,Wunderground v.1.15,2013-06-13 13:48:00,
2013-06-13 09:54:00,80.0,71.8,29.80,SSW,205,11.0,14.0,76,0.00,,,0.00,Wunderground v.1.15,2013-06-13 13:54:00,
2013-06-13 10:00:00,80.0,71.8,29.79,SSE,166,12.0,12.0,76,0.00,,,0.00,Wunderground v.1.15,2013-06-13 14:00:00,
2013-06-13 10:06:00,80.1,71.8,29.79,South,180,13.0,13.0,76,0.00,,,0.00,Wunderground v.1.15,2013-06-13 14:06:00,
2013-06-13 10:12:00,80.0,71.8,29.79,SSE,150,12.0,16.0,76,0.00,,,0.00,Wunderground v.1.15,2013-06-13 14:12:00,
2013-06-13 10:18:00,80.3,72.0,29.78,SSE,158,13.0,16.0,76,0.00,,,0.00,Wunderground v.1.15,2013-06-13 14:18:00,
2013-06-13 10:24:00,80.3,72.0,29.78,SSE,159,11.0,12.0,76,0.00,,,0.00,Wunderground v.1.15,2013-06-13 14:24:00,
2013-06-13 10:30:00,80.1,71.8,29.77,SSE,156,11.0,13.0,76,0.00,,,0.00,Wunderground v.1.15,2013-06-13 14:30:00,
2013-06-13 10:36:00,80.2,71.9,29.77,South,181,13.0,15.0,76,0.00,,,0.00,Wunderground v.1.15,2013-06-13 14:36:00,
2013-06-13 10:42:00,80.5,71.8,29.77,SSW,197,12.0,12.0,75,0.00,,,0.00,Wunderground v.1.15,2013-06-13 14:42:00,
2013-06-13 10:48:00,80.4,72.1,29.77,South,186,13.0,17.0,76,0.00,,,0.00,Wunderground v.1.15,2013-06-13 14:48:00,
2013-06-13 10:54:00,80.4,71.7,29.77,South,176,12.0,14.0,75,0.00,,,0.00,Wunderground v.1.15,2013-06-13 14:54:00,
2013-06-13 11:00:00,80.4,72.1,29.77,South,191,12.0,12.0,76,0.00,,,0.00,Wunderground v.1.15,2013-06-13 15:00:00,
2013-06-13 11:06:00,80.0,71.8,29.77,South,173,11.0,13.0,76,0.00,,,0.00,Wunderground v.1.15,2013-06-13 15:06:00,
2013-06-13 11:12:00,79.8,71.9,29.77,NE,55,11.0,11.0,77,0.00,,,0.00,Wunderground v.1.15,2013-06-13 15:12:00,
2013-06-13 11:18:00,79.8,71.9,29.77,South,174,9.0,11.0,77,0.00,,,0.00,Wunderground v.1.15,2013-06-13 15:18:00,
2013-06-13 11:24:00,80.0,72.1,29.77,SSE,162,9.0,11.0,77,0.00,,,0.00,Wunderground v.1.15,2013-06-13 15:24:00,
2013-06-13 11:30:00,80.3,72.4,29.77,South,186,10.0,11.0,77,0.00,,,0.00,Wunderground v.1.15,2013-06-13 15:30:00,
2013-06-13 11:36:00,80.4,72.1,29.77,South,190,11.0,12.0,76,0.00,,,0.00,Wunderground v.1.15,2013-06-13 15:36:00,
2013-06-13 11:42:00,80.6,73.1,29.77,South,177,11.0,11.0,78,0.00,,,0.00,Wunderground v.1.15,2013-06-13 15:42:00,
2013-06-13 11:48:00,81.2,73.3,29.77,South,181,8.0,11.0,77,0.00,,,0.00,Wunderground v.1.15,2013-06-13 15:48:00,
2013-06-13 11:54:00,81.4,73.1,29.76,South,186,7.0,14.0,76,0.00,,,0.00,Wunderground v.1.15,2013-06-13 15:54:00,
2013-06-13 12:00:00,81.4,73.1,29.76,South,173,10.0,10.0,76,0.00,,,0.00,Wunderground v.1.15,2013-06-13 16:00:00,
2013-06-13 12:06:00,81.5,73.6,29.76,South,179,9.0,14.0,77,0.00,,,0.00,Wunderground v.1.15,2013-06-13 16:06:00,
2013-06-13 12:12:00,81.9,73.2,29.76,South,183,8.0,9.0,75,0.00,,,0.00,Wunderground v.1.15,2013-06-13 16:12:00,
2013-06-13 12:18:00,81.7,73.4,29.75,South,176,8.0,9.0,76,0.00,,,0.00,Wunderground v.1.15,2013-06-13 16:18:00,
2013-06-13 12:24:00,81.7,73.0,29.75,SSW,195,10.0,11.0,75,0.00,,,0.00,Wunderground v.1.15,2013-06-13 16:24:00,
2013-06-13 12:30:00,81.5,73.2,29.75,South,186,12.0,12.0,76,0.00,,,0.00,Wunderground v.1.15,2013-06-13 16:30:00,
2013-06-13 12:36:00,81.3,73.0,29.75,SE,146,11.0,16.0,76,0.00,,,0.00,Wunderground v.1.15,2013-06-13 16:36:00,
2013-06-13 12:42:00,81.2,72.9,29.74,South,180,12.0,17.0,76,0.00,,,0.00,Wunderground v.1.15,2013-06-13 16:42:00,
2013-06-13 12:48:00,81.5,73.6,29.74,South,179,10.0,17.0,77,0.00,,,0.00,Wunderground v.1.15,2013-06-13 16:48:00,
2013-06-13 12:54:00,81.8,73.5,29.73,SSE,165,9.0,11.0,76,0.00,,,0.00,Wunderground v.1.15,2013-06-13 16:54:00,
2013-06-13 13:00:00,82.3,74.0,29.73,South,180,11.0,11.0,76,0.00,,,0.00,Wunderground v.1.15,2013-06-13 17:00:00,
2013-06-13 13:06:00,82.9,74.2,29.73,SSW,193,13.0,14.0,75,0.00,,,0.00,Wunderground v.1.15,2013-06-13 17:06:00,
2013-06-13 13:12:00,82.6,73.5,29.73,South,186,13.0,17.0,74,0.00,,,0.00,Wunderground v.1.15,2013-06-13 17:12:00,
2013-06-13 13:18:00,82.8,73.7,29.73,SSW,194,15.0,17.0,74,0.00,,,0.00,Wunderground v.1.15,2013-06-13 17:18:00,
2013-06-13 13:24:00,83.0,74.6,29.72,SSW,195,13.0,14.0,76,0.00,,,0.00,Wunderground v.1.15,2013-06-13 17:24:00,
2013-06-13 13:30:00,83.0,74.6,29.74,SSW,203,11.0,11.0,76,0.00,,,0.00,Wunderground v.1.15,2013-06-13 17:30:00,
2013-06-13 13:36:00,83.7,75.3,29.74,SSW,204,9.0,11.0,76,0.00,,,0.00,Wunderground v.1.15,2013-06-13 17:36:00,
2013-06-13 13:42:00,84.0,75.2,29.73,SSE,160,8.0,14.0,75,0.00,,,0.00,Wunderground v.1.15,2013-06-13 17:42:00,
2013-06-13 13:48:00,84.0,74.8,29.73,South,184,9.0,14.0,74,0.00,,,0.00,Wunderground v.1.15,2013-06-13 17:48:00,
2013-06-13 13:54:00,84.0,74.4,29.72,SSW,208,11.0,22.0,73,0.00,,,0.00,Wunderground v.1.15,2013-06-13 17:54:00,
2013-06-13 14:00:00,84.2,75.4,29.71,SSE,163,13.0,13.0,75,0.00,,,0.00,Wunderground v.1.15,2013-06-13 18:00:00,
2013-06-13 14:06:00,84.0,74.8,29.71,SSW,208,11.0,13.0,74,0.00,,,0.00,Wunderground v.1.15,2013-06-13 18:06:00,
2013-06-13 14:12:00,83.5,74.3,29.72,South,179,14.0,14.0,74,0.00,,,0.00,Wunderground v.1.15,2013-06-13 18:12:00,
2013-06-13 14:18:00,83.2,74.4,29.71,SSE,152,13.0,14.0,75,0.00,,,0.00,Wunderground v.1.15,2013-06-13 18:18:00,
2013-06-13 14:24:00,83.0,74.3,29.72,SW,217,10.0,14.0,75,0.00,,,0.00,Wunderground v.1.15,2013-06-13 18:24:00,
2013-06-13 14:30:00,82.8,74.5,29.73,South,184,9.0,9.0,76,0.00,,,0.00,Wunderground v.1.15,2013-06-13 18:30:00,
2013-06-13 14:36:00,82.6,74.3,29.73,SSE,168,7.0,9.0,76,0.00,,,0.00,Wunderground v.1.15,2013-06-13 18:36:00,
2013-06-13 14:42:00,82.3,74.0,29.73,SSW,203,8.0,11.0,76,0.00,,,0.00,Wunderground v.1.15,2013-06-13 18:42:00,
2013-06-13 14:48:00,82.0,73.7,29.74,SSW,198,9.0,11.0,76,0.00,,,0.00,Wunderground v.1.15,2013-06-13 18:48:00,
2013-06-13 14:54:00,81.7,73.8,29.73,SSW,203,10.0,15.0,77,0.00,,,0.00,Wunderground v.1.15,2013-06-13 18:54:00,
2013-06-13 15:00:00,81.4,73.9,29.73,South,184,7.0,7.0,78,0.00,,,0.00,Wunderground v.1.15,2013-06-13 19:00:00,
2013-06-13 15:06:00,81.0,74.2,29.75,SW,219,7.0,8.0,80,0.00,,,0.01,Wunderground v.1.15,2013-06-13 19:06:00,
2013-06-13 15:12:00,77.7,71.4,29.76,SSW,205,13.0,32.0,81,0.19,,,0.06,Wunderground v.1.15,2013-06-13 19:12:00,
2013-06-13 15:18:00,73.8,67.6,29.75,SSW,212,16.0,32.0,81,0.07,,,0.06,Wunderground v.1.15,2013-06-13 19:18:00,
2013-06-13 15:24:00,72.7,68.3,29.74,SW,236,10.0,14.0,86,0.04,,,0.06,Wunderground v.1.15,2013-06-13 19:24:00,
2013-06-13 15:30:00,72.4,68.0,29.73,SW,232,6.0,6.0,86,0.00,,,0.06,Wunderground v.1.15,2013-06-13 19:30:00,
2013-06-13 15:36:00,72.5,69.1,29.73,WSW,257,5.0,6.0,89,0.00,,,0.06,Wunderground v.1.15,2013-06-13 19:36:00,
2013-06-13 15:42:00,73.1,70.0,29.74,SW,225,4.0,5.0,90,0.00,,,0.06,Wunderground v.1.15,2013-06-13 19:42:00,
2013-06-13 15:48:00,73.4,70.0,29.74,WNW,293,4.0,8.0,89,0.00,,,0.06,Wunderground v.1.15,2013-06-13 19:48:00,
2013-06-13 15:54:00,73.4,69.3,29.74,NW,307,6.0,8.0,87,0.00,,,0.06,Wunderground v.1.15,2013-06-13 19:54:00,
2013-06-13 16:00:00,73.3,69.2,29.76,NW,323,7.0,7.0,87,0.00,,,0.06,Wunderground v.1.15,2013-06-13 20:00:00,
2013-06-13 16:06:00,73.1,69.3,29.76,SSW,197,4.0,7.0,88,0.00,,,0.06,Wunderground v.1.15,2013-06-13 20:06:00,
2013-06-13 16:12:00,73.0,68.9,29.78,SW,221,2.0,6.0,87,0.00,,,0.06,Wunderground v.1.15,2013-06-13 20:12:00,
2013-06-13 16:18:00,72.8,68.7,29.77,NE,36,1.0,6.0,87,0.00,,,0.06,Wunderground v.1.15,2013-06-13 20:18:00,
2013-06-13 16:24:00,72.9,68.1,29.78,NE,50,2.0,6.0,85,0.00,,,0.06,Wunderground v.1.15,2013-06-13 20:24:00,
2013-06-13 16:30:00,73.0,68.9,29.77,North,9,2.0,2.0,87,0.00,,,0.06,Wunderground v.1.15,2013-06-13 20:30:00,
2013-06-13 16:36:00,73.2,68.1,29.78,SE,142,1.0,6.0,84,0.00,,,0.06,Wunderground v.1.15,2013-06-13 20:36:00,
2013-06-13 16:42:00,73.7,68.6,29.78,NNE,23,1.0,6.0,84,0.00,,,0.06,Wunderground v.1.15,2013-06-13 20:42:00,
2013-06-13 16:48:00,74.6,68.0,29.77,WNW,288,2.0,6.0,80,0.00,,,0.06,Wunderground v.1.15,2013-06-13 20:48:00,
2013-06-13 16:54:00,75.6,68.6,29.78,WSW,250,3.0,6.0,79,0.00,,,0.06,Wunderground v.1.15,2013-06-13 20:54:00,
2013-06-13 17:00:00,76.5,68.4,29.78,WSW,252,2.0,6.0,76,0.00,,,0.06,Wunderground v.1.15,2013-06-13 21:00:00,
2013-06-13 17:06:00,76.9,68.8,29.79,West,263,3.0,6.0,76,0.00,,,0.06,Wunderground v.1.15,2013-06-13 21:06:00,
2013-06-13 17:12:00,77.2,68.3,29.79,NW,318,2.0,6.0,74,0.00,,,0.06,Wunderground v.1.15,2013-06-13 21:12:00,
2013-06-13 17:18:00,77.5,68.6,29.79,WNW,285,1.0,6.0,74,0.00,,,0.06,Wunderground v.1.15,2013-06-13 21:18:00,
2013-06-13 17:24:00,76.5,67.6,29.79,North,10,3.0,7.0,74,0.00,,,0.06,Wunderground v.1.15,2013-06-13 21:24:00,
2013-06-13 17:30:00,75.9,67.8,29.79,NE,46,4.0,4.0,76,0.00,,,0.06,Wunderground v.1.15,2013-06-13 21:30:00,
2013-06-13 17:36:00,75.9,67.8,29.79,NE,37,1.0,6.0,76,0.00,,,0.06,Wunderground v.1.15,2013-06-13 21:36:00,
2013-06-13 17:42:00,76.0,68.6,29.79,NNE,16,1.0,6.0,78,0.00,,,0.06,Wunderground v.1.15,2013-06-13 21:42:00,
2013-06-13 17:48:00,76.1,68.7,29.79,ENE,73,1.0,6.0,78,0.00,,,0.06,Wunderground v.1.15,2013-06-13 21:48:00,
2013-06-13 17:54:00,76.3,68.9,29.78,NE,53,2.0,6.0,78,0.00,,,0.06,Wunderground v.1.15,2013-06-13 21:54:00,
2013-06-13 18:00:00,76.4,67.9,29.78,ENE,76,3.0,6.0,75,0.00,,,0.06,Wunderground v.1.15,2013-06-13 22:00:00,
2013-06-13 18:06:00,76.3,68.6,29.78,NNE,23,3.0,6.0,77,0.00,,,0.06,Wunderground v.1.15,2013-06-13 22:06:00,
2013-06-13 18:12:00,76.0,67.5,29.79,NE,48,3.0,6.0,75,0.00,,,0.06,Wunderground v.1.15,2013-06-13 22:12:00,
2013-06-13 18:18:00,75.8,67.7,29.80,NNW,328,2.0,10.0,76,0.00,,,0.06,Wunderground v.1.15,2013-06-13 22:18:00,
2013-06-13 18:24:00,74.5,67.2,29.79,WNW,301,6.0,9.0,78,0.00,,,0.06,Wunderground v.1.15,2013-06-13 22:24:00,
2013-06-13 18:30:00,73.9,67.3,29.79,WNW,287,5.0,5.0,80,0.00,,,0.06,Wunderground v.1.15,2013-06-13 22:30:00,
2013-06-13 18:36:00,73.5,67.7,29.79,NW,317,3.0,6.0,82,0.00,,,0.06,Wunderground v.1.15,2013-06-13 22:36:00,
2013-06-13 18:42:00,73.5,67.7,29.79,West,266,1.0,6.0,82,0.00,,,0.06,Wunderground v.1.15,2013-06-13 22:42:00,
2013-06-13 18:48:00,73.9,67.3,29.79,SSW,204,1.0,6.0,80,0.00,,,0.06,Wunderground v.1.15,2013-06-13 22:48:00,
2013-06-13 18:54:00,74.1,67.2,29.79,WSW,237,1.0,6.0,79,0.00,,,0.06,Wunderground v.1.15,2013-06-13 22:54:00,
2013-06-13 19:00:00,74.3,67.7,29.80,SSW,197,1.0,6.0,80,0.00,,,0.06,Wunderground v.1.15,2013-06-13 23:00:00,
2013-06-13 19:06:00,74.4,67.5,29.80,SSW,211,1.0,6.0,79,0.00,,,0.06,Wunderground v.1.15,2013-06-13 23:06:00,
2013-06-13 19:12:00,74.3,67.4,29.80,South,190,2.0,6.0,79,0.00,,,0.06,Wunderground v.1.15,2013-06-13 23:12:00,
2013-06-13 19:18:00,74.3,67.4,29.80,SW,226,3.0,6.0,79,0.00,,,0.06,Wunderground v.1.15,2013-06-13 23:18:00,
2013-06-13 19:24:00,74.3,67.0,29.80,SSW,211,3.0,7.0,78,0.00,,,0.06,Wunderground v.1.15,2013-06-13 23:24:00,
2013-06-13 19:30:00,74.3,67.0,29.80,SW,219,3.0,3.0,78,0.00,,,0.06,Wunderground v.1.15,2013-06-13 23:30:00,
2013-06-13 19:36:00,74.4,66.7,29.80,South,191,2.0,6.0,77,0.00,,,0.06,Wunderground v.1.15,2013-06-13 23:36:00,
2013-06-13 19:42:00,74.5,66.8,29.79,SW,231,2.0,6.0,77,0.00,,,0.06,Wunderground v.1.15,2013-06-13 23:42:00,
2013-06-13 19:48:00,74.6,66.9,29.79,West,263,3.0,6.0,77,0.00,,,0.06,Wunderground v.1.15,2013-06-13 23:48:00,
2013-06-13 19:54:00,74.6,66.9,29.79,WNW,297,2.0,6.0,77,0.00,,,0.06,Wunderground v.1.15,2013-06-13 23:54:00,
2013-06-13 20:00:00,74.5,66.8,29.79,SW,219,2.0,6.0,77,0.00,,,0.06,Wunderground v.1.15,2013-06-14 00:00:00,
2013-06-13 20:06:00,74.6,66.9,29.79,SW,228,2.0,6.0,77,0.00,,,0.06,Wunderground v.1.15,2013-06-14 00:06:00,
2013-06-13 20:12:00,75.0,66.9,29.79,WSW,243,3.0,6.0,76,0.00,,,0.06,Wunderground v.1.15,2013-06-14 00:12:00,
2013-06-13 20:18:00,74.9,66.8,29.79,SW,218,3.0,6.0,76,0.00,,,0.06,Wunderground v.1.15,2013-06-14 00:18:00,
2013-06-13 20:24:00,74.6,66.9,29.80,WSW,249,2.0,6.0,77,0.00,,,0.06,Wunderground v.1.15,2013-06-14 00:24:00,
2013-06-13 20:30:00,74.4,67.1,29.80,WSW,240,2.0,2.0,78,0.00,,,0.06,Wunderground v.1.15,2013-06-14 00:30:00,
2013-06-13 20:36:00,74.2,66.9,29.80,WSW,257,3.0,6.0,78,0.00,,,0.06,Wunderground v.1.15,2013-06-14 00:36:00,
2013-06-13 20:42:00,74.1,66.8,29.80,WSW,240,3.0,6.0,78,0.00,,,0.06,Wunderground v.1.15,2013-06-14 00:42:00,
2013-06-13 20:48:00,74.0,66.7,29.81,SSW,197,3.0,6.0,78,0.00,,,0.06,Wunderground v.1.15,2013-06-14 00:48:00,
2013-06-13 20:54:00,74.0,66.7,29.81,SW,228,3.0,6.0,78,0.00,,,0.06,Wunderground v.1.15,2013-06-14 00:54:00,
2013-06-13 21:00:00,73.9,66.6,29.81,SSW,205,3.0,6.0,78,0.00,,,0.06,Wunderground v.1.15,2013-06-14 01:00:00,
2013-06-13 21:06:00,73.8,66.5,29.80,SW,233,3.0,6.0,78,0.00,,,0.06,Wunderground v.1.15,2013-06-14 01:06:00,
2013-06-13 21:12:00,73.8,66.5,29.80,NW,321,5.0,6.0,78,0.00,,,0.06,Wunderground v.1.15,2013-06-14 01:12:00,
2013-06-13 21:18:00,73.8,66.1,29.80,SW,218,4.0,6.0,77,0.00,,,0.06,Wunderground v.1.15,2013-06-14 01:18:00,
2013-06-13 21:24:00,74.0,66.0,29.81,ENE,71,4.0,6.0,76,0.00,,,0.06,Wunderground v.1.15,2013-06-14 01:24:00,
2013-06-13 21:30:00,73.9,65.9,29.81,SW,224,5.0,5.0,76,0.00,,,0.06,Wunderground v.1.15,2013-06-14 01:30:00,
2013-06-13 21:36:00,74.0,66.0,29.82,West,260,5.0,6.0,76,0.00,,,0.06,Wunderground v.1.15,2013-06-14 01:36:00,
2013-06-13 21:42:00,73.9,65.9,29.83,SW,226,4.0,6.0,76,0.00,,,0.06,Wunderground v.1.15,2013-06-14 01:42:00,
2013-06-13 21:48:00,73.8,65.8,29.83,SW,232,4.0,10.0,76,0.00,,,0.06,Wunderground v.1.15,2013-06-14 01:48:00,
2013-06-13 21:54:00,74.0,64.8,29.84,West,265,7.0,12.0,73,0.00,,,0.06,Wunderground v.1.15,2013-06-14 01:54:00,
2013-06-13 22:00:00,73.8,64.6,29.84,WNW,298,7.0,9.0,73,0.00,,,0.06,Wunderground v.1.15,2013-06-14 02:00:00,
2013-06-13 22:06:00,73.6,64.8,29.84,WNW,288,7.0,9.0,74,0.00,,,0.06,Wunderground v.1.15,2013-06-14 02:06:00,
2013-06-13 22:12:00,73.3,64.5,29.85,NE,46,6.0,8.0,74,0.00,,,0.06,Wunderground v.1.15,2013-06-14 02:12:00,
2013-06-13 22:18:00,73.1,63.9,29.86,NW,310,8.0,11.0,73,0.00,,,0.06,Wunderground v.1.15,2013-06-14 02:18:00,
2013-06-13 22:24:00,72.9,63.7,29.86,NW,321,11.0,11.0,73,0.00,,,0.06,Wunderground v.1.15,2013-06-14 02:24:00,
2013-06-13 22:30:00,72.6,63.8,29.87,NW,316,9.0,9.0,74,0.00,,,0.06,Wunderground v.1.15,2013-06-14 02:30:00,
2013-06-13 22:36:00,72.3,63.9,29.87,NW,314,7.0,9.0,75,0.00,,,0.06,Wunderground v.1.15,2013-06-14 02:36:00,
2013-06-13 22:42:00,72.1,64.1,29.87,West,281,7.0,7.0,76,0.00,,,0.06,Wunderground v.1.15,2013-06-14 02:42:00,
2013-06-13 22:48:00,71.8,63.8,29.88,WNW,282,7.0,7.0,76,0.00,,,0.06,Wunderground v.1.15,2013-06-14 02:48:00,
2013-06-13 22:54:00,71.6,63.6,29.88,NW,314,6.0,7.0,76,0.00,,,0.06,Wunderground v.1.15,2013-06-14 02:54:00,
2013-06-13 23:00:00,71.4,63.8,29.88,NW,316,4.0,4.0,77,0.00,,,0.06,Wunderground v.1.15,2013-06-14 03:00:00,
2013-06-13 23:06:00,71.3,64.1,29.88,NNE,15,2.0,6.0,78,0.00,,,0.06,Wunderground v.1.15,2013-06-14 03:06:00,
2013-06-13 23:12:00,70.9,63.7,29.88,WNW,299,1.0,6.0,78,0.00,,,0.06,Wunderground v.1.15,2013-06-14 03:12:00,
2013-06-13 23:18:00,70.7,63.5,29.88,North,360,2.0,6.0,78,0.00,,,0.06,Wunderground v.1.15,2013-06-14 03:18:00,
2013-06-13 23:24:00,70.4,63.2,29.88,WSW,250,2.0,6.0,78,0.00,,,0.06,Wunderground v.1.15,2013-06-14 03:24:00,
2013-06-13 23:30:00,70.2,63.0,29.89,SW,215,1.0,6.0,78,0.00,,,0.06,Wunderground v.1.15,2013-06-14 03:30:00,
2013-06-13 23:36:00,69.8,61.9,29.89,NW,318,2.0,6.0,76,0.00,,,0.06,Wunderground v.1.15,2013-06-14 03:36:00,
2013-06-13 23:42:00,69.8,61.5,29.89,WNW,289,3.0,6.0,75,0.00,,,0.06,Wunderground v.1.15,2013-06-14 03:42:00,
2013-06-13 23:48:00,69.8,60.8,29.89,WNW,283,5.0,7.0,73,0.00,,,0.06,Wunderground v.1.15,2013-06-14 03:48:00,
2013-06-13 23:54:00,69.8,60.4,29.89,West,276,6.0,9.0,72,0.00,,,0.06,Wunderground v.1.15,2013-06-14 03:54:00,